Regional Weather Roundup
Issued by NWS

Home | Current Version | Previous Version | Graphics & Text | Print | Product List | Glossary On
Versions: 1 2 3 4 5 6 7 8 9 10 11 12 13 14 15 16 17 18 19 20 21 22 23 24 25 26 27 28 29 30 31 32 33 34 35 36 37 38 39 40 41 42 43 44 45 46 47 48 49 50
000
ASUS45 KTFX 230410
RWRMT
MONTANA REGIONAL WEATHER ROUNDUP
NATIONAL WEATHER SERVICE GREAT FALLS MT
1000 PM MDT SUN APR 22 2018

NOTE: "FAIR" INDICATES FEW OR NO CLOUDS BELOW 12000 FEET WITH NO
SIGNIFICANT WEATHER AND/OR OBSTRUCTIONS TO VISIBILITY.

MTZ001>007-043-230500-
WEST OF THE DIVIDE

CITY           SKY/WX    TMP DP  RH WIND       PRES   REMARKS
KALISPELL      FAIR      47  23  38 NW3       30.19R
MISSOULA       FAIR      48  20  32 NW7       30.15R
BUTTE          LGT RAIN  43  38  82 CALM      30.13R
MULLAN PASS    FAIR      32  20  61 N6        30.18R WCI  26
ANACONDA         N/A     45  25  45 NW5       30.12S
DEER LODGE       N/A     46  21  36 W8        30.14F
HAMILTON         N/A     48  25  40 MISG      30.13R
PLAINS           N/A     48  24  39 CALM      30.18R
RONAN            N/A     43  28  56 NE8       30.18R
$$

MTZ008-052>055-230500-
SOUTHWEST MONTANA

CITY           SKY/WX    TMP DP  RH WIND       PRES   REMARKS
BOZEMAN        RAIN      43  39  86 N20G30    30.14R
DILLON         CLOUDY    42  37  82 N12G21    30.09R
ENNIS          MIX PCPN  41  37  87 N20G26    30.11F
W YELLOWSTONE  FAIR      43  30  61 N7        30.02R
THREE FORKS      N/A     47  36  65 N12       30.11R
$$

MTZ009-010-012-014-046-048-049-054-230500-
EAST SLOPES AND CENTRAL MONTANA

CITY           SKY/WX    TMP DP  RH WIND       PRES   REMARKS
CUT BANK       FAIR      37  23  56 N10       30.23R WCI  30
GREAT FALLS    FAIR      45  22  40 N12       30.19R
HELENA         CLOUDY    53  24  32 N18G24    30.13R
CHOTEAU          N/A     37  21  52 N10       30.23R WCI  30
POWER          FAIR      42  24  48 N10       30.20R
WHITE SULPHUR    N/A     43  30  61 NE12G20   30.16R
$$

MTZ011-013-016-021-045-047-050-051-230500-
NORTH CENTRAL MONTANA

CITY           SKY/WX    TMP DP  RH WIND       PRES   REMARKS
HAVRE          FAIR      48  27  44 N15       30.20R
LEWISTOWN      CLOUDY    48  24  39 N7        30.18R
N BAR RANCH    CLOUDY    48  21  34 N8        30.20R
CHINOOK          N/A     46  30  53 N6        30.20R
GEYSER         MOCLDY    45  23  41 CALM      30.19R
$$

MTZ017>020-022>027-061-062-230500-
NORTHEAST MONTANA

CITY           SKY/WX    TMP DP  RH WIND       PRES   REMARKS
GLASGOW        FAIR      47  29  49 N10       30.14R
GLENDIVE       FAIR      51  28  41 N10       30.13R
JORDAN           N/A     49  32  52 N9        30.13R
MALTA          CLEAR     46  34  61 CALM      30.15R
SIDNEY         FAIR      49  27  42 NE3       30.13R
WOLF POINT     FAIR      52  29  41 N13       30.13R
PLENTYWOOD       N/A     46  28  49 N8        30.14R
POPLAR           N/A     46  28  49 N7        30.13S
$$

MTZ028>42-056>058-230500-
SOUTHCENTRAL AND SOUTHEAST MONTANA

CITY           SKY/WX    TMP DP  RH WIND       PRES   REMARKS
BAKER          FAIR      46  35  65 E5        30.11S
BILLINGS       MOCLDY    55  30  38 N12       30.07R
LIVINGSTON     CLOUDY    47  40  76 NW17      30.10R
MILES CITY     FAIR      52  34  50 N9        30.09R
BIG TIMBER     CLOUDY    50  28  43 N20G25    30.11R
FORSYTH          N/A     55  30  38 N7        30.08R
LAUREL           N/A     55  28  35 NE16      30.07R
$$

REGIONAL REPORTS...DAKOTAS

CITY           SKY/WX    TMP DP  RH WIND       PRES   REMARKS
WILLISTON      FAIR      52  26  36 NW13      30.12R
MINOT          FAIR      52  32  46 S9        30.09S
DICKINSON      FAIR      48  26  42 E7        30.10R
BEACH          FAIR      39  25  56 CALM      30.16R
CROSBY         FAIR      41  32  70 NW9       30.14R
TIOGA          FAIR      43  32  65 W6        30.14R
BISMARCK       CLOUDY    53  39  59 E5        30.12S
GRAND FORKS    CLOUDY    52  45  77 S9        30.11R
FARGO          FAIR      51  37  58 S17       30.17R
BUFFALO SD       N/A     52  34  50 NE7       30.04R
RAPID CITY     FAIR      46  38  73 E6        30.09S
$$

REGIONAL REPORTS...WYOMING/IDAHO/WASHINGTON

CITY           SKY/WX    TMP DP  RH WIND       PRES   REMARKS
GILLETTE       FAIR      50  39  66 E5        30.06R
SHERIDAN       FAIR      56  37  49 S5        30.06R
BUFFALO WY     FAIR      52  38  58 NW8       30.10R
CODY           FAIR      53  30  41 N8        30.05R
YELLOWSTONE LA   N/A     31  26  82 NW3       30.13
IDAHO FALLS    FAIR      58  35  42 SE9       29.93S
SALMON         MOCLDY    55  27  34 N12       30.03R
BOISE          FAIR      55  27  34 NW13      30.03R
SPOKANE        FAIR      50  23  34 W5        30.23R
$$

REGIONAL REPORTS...ALBERTA

CITY           SKY/WX    TMP DP  RH WIND       PRES   REMARKS
CALGARY        PTCLDY    41  18  38 CALM      30.26R
CARDSTON         N/A     39  23  52 CALM        N/A
EDMONTON       CLEAR     41  18  38 NW6       30.23R
FORT MCMURRAY  PTCLDY    39  30  70 NW9       30.14R
HIGH LEVEL     PTCLDY    39  25  56 CALM      30.15R
LETHBRIDGE     MOCLDY    41  21  45 E3        30.25
LLOYDMINSTER   PTCLDY    36  30  80 NW8       30.18R WCI  29
MEDICINE HAT   CLEAR     45  28  53 NW7       30.23R
MILK RIVER       N/A     37  25  60 NE13        N/A  WCI  29
PEACE RIVER    PTCLDY    39  23  52 W7        30.21R
PINCHER CREEK  PTCLDY    39  19  45 SE3       30.24R
WATERTON GATE    N/A     36  23  60 CALM        N/A
$$

REGIONAL REPORTS...SASKATCHEWAN

CITY           SKY/WX    TMP DP  RH WIND       PRES   REMARKS
ESTEVAN        PTCLDY    41  27  56 NW7       30.13R
MOOSE JAW        N/A     37  28  70 W8          N/A  WCI  31
PRINCE ALBERT  MOCLDY    41  36  81 W9        30.08R
REGINA         CLEAR     43  32  65 NW14      30.14R
ROCKGLEN         N/A     43  19  39 NW8         N/A
SASKATOON      PTCLDY    39  32  75 W10       30.15R
SWIFT CURRENT  CLEAR     37  30  75 NW9       30.17R WCI  31
VAL MARIE        N/A     37  27  65 N6          N/A
$$



USA.gov is the U.S. government's official web portal to all federal, state and local government web resources and services.